TimeHST,TemperatureF,Dew PointF,Humidity,Sea Level PressureIn,VisibilityMPH,Wind Direction,Wind SpeedMPH,Gust SpeedMPH,PrecipitationIn,Events,Conditions,WindDirDegrees,DateUTC
12:53 AM,71.1,66.9,87,30.06,10.0,WSW,6.9,-,0.10,,Overcast,250,2013-08-02 10:53:00
1:53 AM,71.1,66.9,87,30.04,10.0,WSW,6.9,-,N/A,,Overcast,240,2013-08-02 11:53:00
2:16 AM,71.1,66.0,84,30.05,10.0,WSW,6.9,-,N/A,,Mostly Cloudy,240,2013-08-02 12:16:00
2:27 AM,70.0,66.0,87,30.04,10.0,WSW,6.9,-,N/A,,Scattered Clouds,240,2013-08-02 12:27:00
2:53 AM,70.0,66.0,87,30.04,10.0,WSW,6.9,-,N/A,,Scattered Clouds,240,2013-08-02 12:53:00
3:53 AM,70.0,64.9,84,30.03,10.0,WSW,6.9,-,N/A,,Scattered Clouds,240,2013-08-02 13:53:00
4:53 AM,70.0,64.9,84,30.03,10.0,WSW,5.8,-,N/A,,Mostly Cloudy,250,2013-08-02 14:53:00
5:53 AM,70.0,63.0,78,30.04,10.0,SW,5.8,-,N/A,,Mostly Cloudy,230,2013-08-02 15:53:00
6:53 AM,71.1,66.0,84,30.05,10.0,SW,3.5,-,N/A,,Mostly Cloudy,220,2013-08-02 16:53:00
7:53 AM,75.0,66.9,76,30.06,10.0,NW,4.6,-,N/A,,Mostly Cloudy,310,2013-08-02 17:53:00
8:23 AM,75.0,66.9,76,30.07,10.0,West,4.6,-,N/A,,Overcast,280,2013-08-02 18:23:00
8:34 AM,77.0,66.9,71,30.07,10.0,WNW,5.8,-,N/A,,Overcast,290,2013-08-02 18:34:00
8:43 AM,75.9,66.0,71,30.07,10.0,West,4.6,-,N/A,,Overcast,280,2013-08-02 18:43:00
8:50 AM,77.0,66.2,69,30.07,10.0,WNW,5.8,-,N/A,,Overcast,300,2013-08-02 18:50:00
8:53 AM,77.0,66.9,71,30.07,10.0,WNW,4.6,-,N/A,,Overcast,300,2013-08-02 18:53:00
9:53 AM,80.1,66.0,62,30.06,10.0,Variable,3.5,-,N/A,,Scattered Clouds,0,2013-08-02 19:53:00
10:27 AM,82.0,66.9,60,30.07,10.0,ENE,5.8,-,N/A,,Mostly Cloudy,70,2013-08-02 20:27:00
10:48 AM,80.6,66.2,61,30.07,10.0,NE,3.5,-,N/A,,Overcast,40,2013-08-02 20:48:00
10:53 AM,81.0,66.0,60,30.06,10.0,NE,6.9,-,N/A,,Overcast,50,2013-08-02 20:53:00
11:53 AM,82.0,66.9,60,30.05,10.0,NE,8.1,-,N/A,,Mostly Cloudy,50,2013-08-02 21:53:00
12:53 PM,81.0,68.0,65,30.03,10.0,East,15.0,-,N/A,,Mostly Cloudy,80,2013-08-02 22:53:00
1:53 PM,84.0,66.9,56,30.02,10.0,East,13.8,-,0.00,,Scattered Clouds,100,2013-08-02 23:53:00
2:53 PM,82.0,66.0,58,30.01,10.0,East,11.5,-,N/A,,Scattered Clouds,100,2013-08-03 00:53:00
3:53 PM,80.1,64.9,60,30.01,10.0,ESE,6.9,-,N/A,,Mostly Cloudy,110,2013-08-03 01:53:00
4:18 PM,80.1,66.0,62,30.01,10.0,East,9.2,-,N/A,,Mostly Cloudy,90,2013-08-03 02:18:00
4:36 PM,79.0,66.0,64,30.01,10.0,East,8.1,-,N/A,,Mostly Cloudy,100,2013-08-03 02:36:00
4:53 PM,79.0,66.9,66,30.00,10.0,ENE,6.9,-,N/A,,Overcast,70,2013-08-03 02:53:00
5:53 PM,78.1,66.9,68,30.01,10.0,East,8.1,-,N/A,,Mostly Cloudy,80,2013-08-03 03:53:00
6:53 PM,75.9,66.0,71,30.02,10.0,East,4.6,-,N/A,,Mostly Cloudy,90,2013-08-03 04:53:00
7:53 PM,75.0,66.9,76,30.04,10.0,Calm,Calm,-,N/A,,Scattered Clouds,0,2013-08-03 05:53:00
8:53 PM,73.9,66.9,79,30.06,10.0,SW,4.6,-,N/A,,Mostly Cloudy,220,2013-08-03 06:53:00
9:53 PM,73.0,66.0,79,30.07,10.0,SW,4.6,-,N/A,,Partly Cloudy,220,2013-08-03 07:53:00
10:53 PM,72.0,66.0,81,30.06,10.0,SW,4.6,-,N/A,,Partly Cloudy,230,2013-08-03 08:53:00
11:53 PM,72.0,64.9,78,30.05,10.0,WSW,5.8,-,N/A,,Mostly Cloudy,240,2013-08-03 09:53:00